When you browse on this site, cookies collect data to enhance your experience and personalize the content and advertising you see.
Visit our Privacy Policy to learn more. By continuing to use the site, you agree to this use of cookies and data.

Tiempo cada hora Seredina-Buda

Hoy, 4 Julio, Sábado

Tiempo Temperatura Precipitaciones Viento Presión Humedad
00:00 +20°C° 0 mm 2 mps 742 mmHg 85%
01:00 +20°C° 0 mm 2 mps 742 mmHg 85%
02:00 +19°C° 0 mm 2 mps 742 mmHg 86%
03:00 +19°C° 0 mm 2 mps 742 mmHg 86%
04:00 +19°C° 0 mm 2 mps 742 mmHg 87%
05:00 +20°C° 0 mm 2 mps 742 mmHg 87%
06:00 +21°C° 0 mm 2 mps 742 mmHg 82%
07:00 +24°C° 0 mm 2 mps 742 mmHg 78%
08:00 +25°C° 0 mm 2 mps 742 mmHg 73%
09:00 +26°C° 0.3 mm 2 mps 743 mmHg 71%
10:00 +27°C° 0.3 mm 3 mps 743 mmHg 68%
11:00 +28°C° 0.3 mm 3 mps 743 mmHg 65%
12:00 +27°C° 0.4 mm 3 mps 743 mmHg 69%
13:00 +26°C° 0.4 mm 3 mps 743 mmHg 73%
14:00 +26°C° 0.4 mm 3 mps 743 mmHg 77%
15:00 +26°C° 0.4 mm 2 mps 743 mmHg 78%
16:00 +25°C° 0.4 mm 2 mps 742 mmHg 80%
17:00 +25°C° 0.4 mm 2 mps 742 mmHg 81%
18:00 +24°C° 0.3 mm 1 mps 742 mmHg 85%
19:00 +23°C° 0.3 mm 1 mps 743 mmHg 88%
20:00 +22°C° 0.3 mm 1 mps 743 mmHg 92%
21:00 +22°C° 0.2 mm 1 mps 743 mmHg 92%
22:00 +21°C° 0.2 mm 1 mps 742 mmHg 92%
23:00 +21°C° 0.2 mm 1 mps 742 mmHg 92%

Mañana, 5 Julio, Domingo

Tiempo Temperatura Precipitaciones Viento Presión Humedad
00:00 +21°C° 0.1 mm 1 mps 742 mmHg 93%
01:00 +21°C° 0.1 mm 1 mps 742 mmHg 93%
02:00 +21°C° 0.1 mm 1 mps 742 mmHg 94%
03:00 +21°C° 0.3 mm 1 mps 742 mmHg 94%
04:00 +21°C° 0.3 mm 1 mps 742 mmHg 95%
05:00 +21°C° 0.3 mm 1 mps 742 mmHg 95%
06:00 +22°C° 0.4 mm 1 mps 742 mmHg 92%
07:00 +22°C° 0.4 mm 1 mps 742 mmHg 90%
08:00 +21°C° 0.4 mm 0 mps 742 mmHg 87%
09:00 +22°C° 0.7 mm 0 mps 742 mmHg 82%
10:00 +25°C° 0.7 mm 1 mps 742 mmHg 77%
11:00 +26°C° 0.7 mm 1 mps 742 mmHg 73%
12:00 +26°C° 0 mm 1 mps 742 mmHg 71%
13:00 +27°C° 0 mm 2 mps 742 mmHg 68%
14:00 +27°C° 0 mm 2 mps 742 mmHg 66%
15:00 +27°C° 0.3 mm 2 mps 742 mmHg 70%
16:00 +27°C° 0.3 mm 1 mps 742 mmHg 73%
17:00 +26°C° 0.3 mm 1 mps 742 mmHg 76%
18:00 +25°C° 1 mm 1 mps 742 mmHg 80%
19:00 +24°C° 1 mm 1 mps 742 mmHg 84%
20:00 +22°C° 1 mm 1 mps 742 mmHg 88%
21:00 +20°C° 0 mm 2 mps 742 mmHg 89%
22:00 +20°C° 0 mm 2 mps 742 mmHg 90%
23:00 +19°C° 0 mm 2 mps 742 mmHg 92%

Pasado mañana, 6 Julio, Lunes

Tiempo Temperatura Precipitaciones Viento Presión Humedad
00:00 +19°C° 0 mm 2 mps 742 mmHg 92%
01:00 +18°C° 0 mm 2 mps 742 mmHg 93%
02:00 +19°C° 0 mm 1 mps 742 mmHg 93%
03:00 +19°C° 0 mm 1 mps 742 mmHg 93%
04:00 +19°C° 0 mm 1 mps 742 mmHg 93%
05:00 +19°C° 0 mm 1 mps 742 mmHg 93%
06:00 +21°C° 0 mm 1 mps 742 mmHg 88%
07:00 +23°C° 0 mm 1 mps 742 mmHg 82%
08:00 +24°C° 0 mm 1 mps 742 mmHg 77%
09:00 +26°C° 0 mm 1 mps 742 mmHg 72%
10:00 +27°C° 0 mm 1 mps 742 mmHg 66%
11:00 +26°C° 0 mm 0 mps 742 mmHg 60%
12:00 +27°C° 0 mm 0 mps 742 mmHg 58%
13:00 +29°C° 0 mm 1 mps 741 mmHg 57%
14:00 +29°C° 0 mm 1 mps 741 mmHg 55%
15:00 +29°C° 0 mm 1 mps 741 mmHg 57%
16:00 +27°C° 0 mm 0 mps 741 mmHg 59%
17:00 +27°C° 0 mm 0 mps 740 mmHg 62%
18:00 +25°C° 0 mm 0 mps 740 mmHg 67%
19:00 +23°C° 0 mm 0 mps 740 mmHg 73%
20:00 +21°C° 0 mm 0 mps 740 mmHg 78%
21:00 +21°C° 0 mm 0 mps 740 mmHg 81%
22:00 +20°C° 0 mm 0 mps 740 mmHg 83%
23:00 +19°C° 0 mm 0 mps 739 mmHg 85%

7 Julio, Martes

Tiempo Temperatura Precipitaciones Viento Presión Humedad
00:00 +19°C° 0 mm 0 mps 739 mmHg 86%
01:00 +19°C° 0 mm 0 mps 739 mmHg 87%
02:00 +18°C° 0 mm 0 mps 739 mmHg 88%
03:00 +19°C° 0 mm 0 mps 739 mmHg 88%
04:00 +19°C° 0 mm 0 mps 739 mmHg 87%
05:00 +20°C° 0 mm 0 mps 739 mmHg 87%
06:00 +21°C° 0 mm 0 mps 739 mmHg 82%
07:00 +23°C° 0 mm 0 mps 739 mmHg 77%
08:00 +25°C° 0 mm 0 mps 739 mmHg 72%
09:00 +28°C° 0.4 mm 1 mps 739 mmHg 68%
10:00 +29°C° 0.4 mm 1 mps 739 mmHg 64%
11:00 +30°C° 0.4 mm 1 mps 739 mmHg 60%
12:00 +30°C° 0.2 mm 2 mps 738 mmHg 60%
13:00 +30°C° 0.2 mm 2 mps 738 mmHg 61%
14:00 +30°C° 0.2 mm 3 mps 738 mmHg 62%
15:00 +29°C° 0.1 mm 3 mps 738 mmHg 66%
16:00 +28°C° 0.1 mm 4 mps 738 mmHg 70%
17:00 +27°C° 0.1 mm 4 mps 738 mmHg 74%
18:00 +26°C° 0.1 mm 4 mps 738 mmHg 79%
19:00 +23°C° 0.1 mm 4 mps 739 mmHg 85%
20:00 +21°C° 0.1 mm 4 mps 739 mmHg 90%
21:00 +20°C° 0.3 mm 4 mps 739 mmHg 91%
22:00 +19°C° 0.3 mm 4 mps 739 mmHg 92%
23:00 +18°C° 0.3 mm 4 mps 739 mmHg 92%

8 Julio, Miércoles

Tiempo Temperatura Precipitaciones Viento Presión Humedad
00:00 +18°C° 0 mm 4 mps 739 mmHg 90%
01:00 +17°C° 0 mm 4 mps 739 mmHg 87%
02:00 +15°C° 0 mm 4 mps 739 mmHg 84%
03:00 +15°C° 0 mm 4 mps 740 mmHg 85%
04:00 +15°C° 0 mm 4 mps 740 mmHg 85%
05:00 +15°C° 0 mm 4 mps 740 mmHg 86%
06:00 +17°C° 0 mm 4 mps 740 mmHg 82%
07:00 +18°C° 0 mm 4 mps 741 mmHg 77%
08:00 +19°C° 0 mm 4 mps 741 mmHg 73%
09:00 +20°C° 0 mm 5 mps 741 mmHg 70%
10:00 +21°C° 0 mm 5 mps 742 mmHg 67%
11:00 +22°C° 0 mm 5 mps 742 mmHg 63%
12:00 +22°C° 0 mm 5 mps 742 mmHg 64%
13:00 +21°C° 0 mm 5 mps 742 mmHg 65%
14:00 +21°C° 0 mm 4 mps 742 mmHg 66%
15:00 +21°C° 0 mm 4 mps 742 mmHg 66%
16:00 +21°C° 0 mm 4 mps 742 mmHg 66%
17:00 +21°C° 0 mm 4 mps 742 mmHg 66%
18:00 +19°C° 0 mm 4 mps 743 mmHg 70%
19:00 +17°C° 0 mm 4 mps 743 mmHg 75%
20:00 +16°C° 0 mm 3 mps 743 mmHg 79%
21:00 +14°C° 0 mm 3 mps 743 mmHg 82%
22:00 +13°C° 0 mm 3 mps 743 mmHg 85%
23:00 +12°C° 0 mm 3 mps 743 mmHg 87%

9 Julio, Jueves

Tiempo Temperatura Precipitaciones Viento Presión Humedad
00:00 +12°C° 0 mm 3 mps 744 mmHg 89%
01:00 +11°C° 0 mm 3 mps 744 mmHg 90%
02:00 +11°C° 0 mm 3 mps 744 mmHg 91%
03:00 +11°C° 0 mm 3 mps 744 mmHg 91%
04:00 +11°C° 0 mm 3 mps 744 mmHg 90%
05:00 +11°C° 0 mm 3 mps 744 mmHg 90%
06:00 +13°C° 0 mm 3 mps 745 mmHg 84%
07:00 +14°C° 0 mm 4 mps 745 mmHg 78%
08:00 +17°C° 0 mm 4 mps 745 mmHg 72%
09:00 +18°C° 0 mm 4 mps 745 mmHg 67%
10:00 +19°C° 0 mm 4 mps 745 mmHg 61%
11:00 +20°C° 0 mm 5 mps 745 mmHg 56%
12:00 +20°C° 0 mm 5 mps 745 mmHg 56%
13:00 +20°C° 0 mm 5 mps 745 mmHg 56%
14:00 +21°C° 0 mm 5 mps 745 mmHg 56%
15:00 +21°C° 0 mm 4 mps 745 mmHg 59%
16:00 +20°C° 0 mm 4 mps 745 mmHg 61%
17:00 +20°C° 0 mm 4 mps 745 mmHg 64%
18:00 +19°C° 0 mm 3 mps 745 mmHg 70%
19:00 +17°C° 0 mm 2 mps 745 mmHg 75%
20:00 +15°C° 0 mm 2 mps 745 mmHg 81%
21:00 +15°C° 0 mm 1 mps 745 mmHg 80%
22:00 +14°C° 0 mm 1 mps 745 mmHg 79%
23:00 +14°C° 0 mm 1 mps 745 mmHg 78%
Mostrar más